Location: Warszawa
(52.2500°N, 21.0000°E)
Time: 20:49:10
(UTC+02:00)

Vanguard 2 - Pass Details

Date: 03 February 2023
Orbit: 553 x 2927 km, 32.9° (Epoch: 27 March)

Event Time Altitude Azimuth Distance (km) Brightness Sun altitude
Rises 21:56:31 0° 229° (SW) 5,604 12.0 -47.8°
Reaches altitude 10° 22:00:20 10° 221° (SW) 4,898 11.5 -48.1°
Enters shadow 22:00:41 11° 220° (SW) 4,839 11.5 -48.2°
